Time,TemperatureF,DewpointF,PressureIn,WindDirection,WindDirectionDegrees,WindSpeedMPH,WindSpeedGustMPH,Humidity,HourlyPrecipIn,Conditions,Clouds,dailyrainin,SoftwareType,DateUTC
2013-07-31 16:02:00,0.0,0.0,27.52,South,183,3.1,3.1,0,0.00,,---,0.51,VWS V14.01,2013-07-31 20:02:00,
2013-07-31 16:03:00,0.0,0.0,27.52,West,267,2.2,3.1,0,0.00,,---,0.00,VWS V14.01,2013-07-31 20:03:00,
2013-07-31 16:08:00,0.0,0.0,27.52,SW,224,2.2,2.7,0,0.00,,---,0.00,VWS V14.01,2013-07-31 20:08:00,
2013-07-31 16:13:00,0.0,0.0,27.52,NE,36,2.2,2.2,0,0.00,,---,0.00,VWS V14.01,2013-07-31 20:13:00,
2013-07-31 16:18:00,0.0,0.0,27.52,ENE,57,3.1,3.1,0,0.00,,---,0.00,VWS V14.01,2013-07-31 20:18:00,
2013-07-31 16:23:00,0.0,0.0,27.52,ESE,113,3.6,3.6,0,0.00,,---,0.00,VWS V14.01,2013-07-31 20:23:00,
2013-07-31 16:28:00,0.0,0.0,27.52,ESE,114,0.0,0.0,0,0.00,,---,0.00,VWS V14.01,2013-07-31 20:28:00,
2013-07-31 16:33:00,0.0,0.0,27.52,West,263,0.0,2.2,0,0.00,,---,0.00,VWS V14.01,2013-07-31 20:33:00,
2013-07-31 16:38:00,0.0,0.0,27.52,East,83,0.0,0.0,0,0.00,,---,0.00,VWS V14.01,2013-07-31 20:38:00,
2013-07-31 16:43:00,0.0,0.0,27.49,ESE,118,3.1,3.1,0,0.00,,---,0.00,VWS V14.01,2013-07-31 20:43:00,
2013-07-31 16:48:00,0.0,0.0,27.49,ESE,111,4.0,4.0,0,0.00,,---,0.00,VWS V14.01,2013-07-31 20:48:00,
2013-07-31 16:53:00,0.0,0.0,27.49,ESE,122,2.7,3.6,0,0.00,,---,0.00,VWS V14.01,2013-07-31 20:53:00,
2013-07-31 16:58:00,0.0,0.0,27.49,SE,124,0.0,0.0,0,0.00,,---,0.00,VWS V14.01,2013-07-31 20:58:00,
2013-07-31 17:03:00,0.0,0.0,27.49,East,99,2.7,3.1,0,0.00,,---,0.00,VWS V14.01,2013-07-31 21:03:00,
2013-07-31 17:08:00,0.0,0.0,27.49,SE,126,2.7,3.1,0,0.00,,---,0.00,VWS V14.01,2013-07-31 21:08:00,
2013-07-31 17:13:00,0.0,0.0,27.49,SSE,162,2.2,2.2,0,0.00,,---,0.00,VWS V14.01,2013-07-31 21:13:00,
2013-07-31 17:18:00,0.0,0.0,27.49,ENE,71,0.0,3.1,0,0.00,,---,0.00,VWS V14.01,2013-07-31 21:18:00,
2013-07-31 17:23:00,0.0,0.0,27.49,East,101,2.2,2.2,0,0.00,,---,0.00,VWS V14.01,2013-07-31 21:23:00,
2013-07-31 17:28:00,0.0,0.0,27.49,WSW,246,2.2,2.2,0,0.00,,---,0.00,VWS V14.01,2013-07-31 21:28:00,
2013-07-31 17:33:00,0.0,0.0,27.49,West,261,0.0,0.0,0,0.00,,---,0.00,VWS V14.01,2013-07-31 21:33:00,
2013-07-31 17:38:00,0.0,0.0,27.49,ESE,104,2.2,2.2,0,0.00,,---,0.00,VWS V14.01,2013-07-31 21:38:00,
2013-07-31 17:43:00,0.0,0.0,27.49,ESE,104,0.0,0.0,0,0.00,,---,0.00,VWS V14.01,2013-07-31 21:43:00,
2013-07-31 17:48:00,0.0,0.0,27.49,ESE,104,0.0,0.0,0,0.00,,---,0.00,VWS V14.01,2013-07-31 21:48:00,
2013-07-31 17:53:00,0.0,0.0,27.49,ESE,104,0.0,0.0,0,0.00,,---,0.00,VWS V14.01,2013-07-31 21:53:00,
2013-07-31 17:58:00,0.0,0.0,27.49,ESE,104,2.7,2.7,0,0.00,,---,0.00,VWS V14.01,2013-07-31 21:58:00,
2013-07-31 18:03:00,0.0,0.0,27.49,ESE,104,0.0,0.0,0,0.00,,---,0.00,VWS V14.01,2013-07-31 22:03:00,
2013-07-31 18:08:00,0.0,0.0,27.49,ESE,104,0.0,0.0,0,0.00,,---,0.00,VWS V14.01,2013-07-31 22:08:00,
2013-07-31 18:13:00,0.0,0.0,27.46,ESE,104,0.0,0.0,0,0.00,,---,0.00,VWS V14.01,2013-07-31 22:13:00,
2013-07-31 18:18:00,0.0,0.0,27.46,ESE,104,0.0,0.0,0,0.00,,---,0.00,VWS V14.01,2013-07-31 22:18:00,
2013-07-31 18:23:00,0.0,0.0,27.46,ESE,104,0.0,0.0,0,0.00,,---,0.00,VWS V14.01,2013-07-31 22:23:00,
2013-07-31 18:28:00,0.0,0.0,27.46,ESE,104,0.0,0.0,0,0.00,,---,0.00,VWS V14.01,2013-07-31 22:28:00,
2013-07-31 18:33:00,0.0,0.0,27.46,ESE,104,0.0,0.0,0,0.00,,---,0.00,VWS V14.01,2013-07-31 22:33:00,
2013-07-31 18:38:00,0.0,0.0,27.46,ESE,104,0.0,0.0,0,0.00,,---,0.00,VWS V14.01,2013-07-31 22:38:00,
2013-07-31 18:43:00,0.0,0.0,27.46,ESE,104,0.0,0.0,0,0.00,,---,0.00,VWS V14.01,2013-07-31 22:43:00,
2013-07-31 18:48:00,0.0,0.0,27.46,ESE,104,0.0,0.0,0,0.00,,---,0.51,VWS V14.01,2013-07-31 22:48:00,
2013-07-31 18:53:00,0.0,0.0,27.46,ESE,104,0.0,0.0,0,0.00,,---,0.00,VWS V14.01,2013-07-31 22:53:00,
2013-07-31 18:58:00,0.0,0.0,27.46,ESE,104,0.0,0.0,0,0.00,,---,0.00,VWS V14.01,2013-07-31 22:58:00,
2013-07-31 19:03:00,0.0,0.0,27.46,ESE,104,0.0,0.0,0,0.00,,---,0.00,VWS V14.01,2013-07-31 23:03:00,
2013-07-31 19:08:00,0.0,0.0,27.46,ESE,104,0.0,0.0,0,0.00,,---,0.00,VWS V14.01,2013-07-31 23:08:00,
2013-07-31 19:13:00,0.0,0.0,27.46,ESE,104,0.0,0.0,0,0.00,,---,0.00,VWS V14.01,2013-07-31 23:13:00,
2013-07-31 19:18:00,0.0,0.0,27.46,ESE,104,0.0,0.0,0,0.00,,---,0.00,VWS V14.01,2013-07-31 23:18:00,
2013-07-31 19:23:00,0.0,0.0,27.46,ESE,104,0.0,0.0,0,0.00,,---,0.00,VWS V14.01,2013-07-31 23:23:00,
2013-07-31 19:28:00,0.0,0.0,27.46,ESE,104,0.0,0.0,0,0.00,,---,0.00,VWS V14.01,2013-07-31 23:28:00,
2013-07-31 19:33:00,0.0,0.0,27.46,ESE,104,0.0,0.0,0,0.00,,---,0.00,VWS V14.01,2013-07-31 23:33:00,
2013-07-31 19:38:00,0.0,0.0,27.46,ESE,104,0.0,0.0,0,0.00,,---,0.00,VWS V14.01,2013-07-31 23:38:00,
2013-07-31 19:43:00,0.0,0.0,27.49,ESE,104,0.0,0.0,0,0.00,,---,0.00,VWS V14.01,2013-07-31 23:43:00,
2013-07-31 19:48:00,0.0,0.0,27.49,ESE,104,0.0,0.0,0,0.00,,---,0.00,VWS V14.01,2013-07-31 23:48:00,
2013-07-31 19:53:00,0.0,0.0,27.49,ESE,104,0.0,0.0,0,0.00,,---,0.00,VWS V14.01,2013-07-31 23:53:00,
2013-07-31 19:58:00,0.0,0.0,27.49,ESE,104,0.0,0.0,0,0.00,,---,0.00,VWS V14.01,2013-07-31 23:58:00,
2013-07-31 20:03:00,0.0,0.0,27.49,ESE,104,0.0,0.0,0,0.00,,---,0.00,VWS V14.01,2013-08-01 00:03:00,
2013-07-31 20:08:00,0.0,0.0,27.49,ESE,104,0.0,0.0,0,0.00,,---,0.00,VWS V14.01,2013-08-01 00:08:00,
2013-07-31 20:13:00,0.0,0.0,27.49,ESE,104,0.0,0.0,0,0.00,,---,0.00,VWS V14.01,2013-08-01 00:13:00,
2013-07-31 20:18:00,0.0,0.0,27.49,ESE,104,0.0,0.0,0,0.00,,---,0.00,VWS V14.01,2013-08-01 00:18:00,
2013-07-31 20:23:00,0.0,0.0,27.49,ESE,104,0.0,0.0,0,0.00,,---,0.00,VWS V14.01,2013-08-01 00:23:00,
2013-07-31 20:28:00,0.0,0.0,27.49,ESE,102,3.1,3.1,0,0.00,,---,0.00,VWS V14.01,2013-08-01 00:28:00,
2013-07-31 20:33:00,0.0,0.0,27.49,ESE,102,0.0,0.0,0,0.00,,---,0.00,VWS V14.01,2013-08-01 00:33:00,
2013-07-31 20:38:00,0.0,0.0,27.49,ESE,102,0.0,0.0,0,0.00,,---,0.00,VWS V14.01,2013-08-01 00:38:00,
2013-07-31 20:43:00,0.0,0.0,27.49,ESE,102,0.0,0.0,0,0.00,,---,0.00,VWS V14.01,2013-08-01 00:43:00,
2013-07-31 20:48:00,0.0,0.0,27.49,ESE,102,0.0,0.0,0,0.00,,---,0.00,VWS V14.01,2013-08-01 00:48:00,
2013-07-31 20:53:00,0.0,0.0,27.49,ESE,102,0.0,0.0,0,0.00,,---,0.00,VWS V14.01,2013-08-01 00:53:00,
2013-07-31 20:58:00,0.0,0.0,27.49,ESE,102,0.0,0.0,0,0.00,,---,0.00,VWS V14.01,2013-08-01 00:58:00,
2013-07-31 21:03:00,0.0,0.0,27.49,ESE,102,0.0,0.0,0,0.00,,---,0.00,VWS V14.01,2013-08-01 01:03:00,
2013-07-31 21:08:00,0.0,0.0,27.49,ESE,112,0.0,0.0,0,0.00,,---,0.00,VWS V14.01,2013-08-01 01:08:00,
2013-07-31 21:13:00,0.0,0.0,27.49,ESE,112,0.0,0.0,0,0.00,,---,0.00,VWS V14.01,2013-08-01 01:13:00,
2013-07-31 21:18:00,0.0,0.0,27.49,ESE,112,0.0,0.0,0,0.00,,---,0.00,VWS V14.01,2013-08-01 01:18:00,
2013-07-31 21:23:00,0.0,0.0,27.49,ESE,112,0.0,0.0,0,0.00,,---,0.00,VWS V14.01,2013-08-01 01:23:00,
2013-07-31 21:28:00,0.0,0.0,27.49,ESE,112,0.0,0.0,0,0.00,,---,0.00,VWS V14.01,2013-08-01 01:28:00,
2013-07-31 21:33:00,0.0,0.0,27.49,ESE,112,0.0,0.0,0,0.00,,---,0.00,VWS V14.01,2013-08-01 01:33:00,
2013-07-31 21:38:00,0.0,0.0,27.49,ESE,112,0.0,0.0,0,0.00,,---,0.00,VWS V14.01,2013-08-01 01:38:00,
2013-07-31 21:43:00,0.0,0.0,27.49,ESE,112,0.0,0.0,0,0.00,,---,0.00,VWS V14.01,2013-08-01 01:43:00,
2013-07-31 21:48:00,0.0,0.0,27.49,ESE,112,0.0,0.0,0,0.00,,---,0.00,VWS V14.01,2013-08-01 01:48:00,
2013-07-31 21:52:00,0.0,0.0,27.49,ESE,112,0.0,0.0,0,0.00,,---,0.00,VWS V14.01,2013-08-01 01:52:00,
2013-07-31 21:57:00,0.0,0.0,27.49,ESE,112,0.0,0.0,0,0.00,,---,0.00,VWS V14.01,2013-08-01 01:57:00,
2013-07-31 22:02:00,0.0,0.0,27.49,ENE,58,0.0,0.0,0,0.00,,---,0.00,VWS V14.01,2013-08-01 02:02:00,
2013-07-31 22:07:00,0.0,0.0,27.49,ENE,58,0.0,0.0,0,0.00,,---,0.00,VWS V14.01,2013-08-01 02:07:00,
2013-07-31 22:12:00,0.0,0.0,27.49,ENE,58,0.0,0.0,0,0.00,,---,0.00,VWS V14.01,2013-08-01 02:12:00,
2013-07-31 22:17:00,0.0,0.0,27.49,ENE,58,0.0,0.0,0,0.00,,---,0.00,VWS V14.01,2013-08-01 02:17:00,
2013-07-31 22:22:00,0.0,0.0,27.49,ENE,58,0.0,0.0,0,0.00,,---,0.00,VWS V14.01,2013-08-01 02:22:00,
2013-07-31 22:27:00,0.0,0.0,27.49,ENE,58,0.0,0.0,0,0.00,,---,0.00,VWS V14.01,2013-08-01 02:27:00,
2013-07-31 22:32:00,0.0,0.0,27.49,ENE,58,0.0,0.0,0,0.00,,---,0.00,VWS V14.01,2013-08-01 02:32:00,
2013-07-31 22:37:00,0.0,0.0,27.49,ENE,58,0.0,0.0,0,0.00,,---,0.00,VWS V14.01,2013-08-01 02:37:00,
2013-07-31 22:42:00,0.0,0.0,27.49,ENE,58,0.0,0.0,0,0.00,,---,0.00,VWS V14.01,2013-08-01 02:42:00,
2013-07-31 22:47:00,0.0,0.0,27.49,ENE,58,0.0,0.0,0,0.00,,---,0.00,VWS V14.01,2013-08-01 02:47:00,
2013-07-31 22:52:00,0.0,0.0,27.49,ENE,58,0.0,0.0,0,0.00,,---,0.00,VWS V14.01,2013-08-01 02:52:00,
2013-07-31 22:57:00,0.0,0.0,27.49,ENE,58,0.0,0.0,0,0.00,,---,0.00,VWS V14.01,2013-08-01 02:57:00,
2013-07-31 23:02:00,0.0,0.0,27.49,ENE,58,0.0,0.0,0,0.00,,---,0.00,VWS V14.01,2013-08-01 03:02:00,
2013-07-31 23:08:00,0.0,0.0,27.49,ENE,58,0.0,0.0,0,0.00,,---,0.00,VWS V14.01,2013-08-01 03:08:00,
2013-07-31 23:13:00,0.0,0.0,27.49,ENE,58,0.0,0.0,0,0.00,,---,0.00,VWS V14.01,2013-08-01 03:13:00,
2013-07-31 23:18:00,0.0,0.0,27.49,ENE,58,0.0,0.0,0,0.00,,---,0.00,VWS V14.01,2013-08-01 03:18:00,
2013-07-31 23:23:00,0.0,0.0,27.49,SW,230,2.7,2.7,0,0.00,,---,0.00,VWS V14.01,2013-08-01 03:23:00,
2013-07-31 23:28:00,0.0,0.0,27.49,SW,230,2.7,2.7,0,0.00,,---,0.00,VWS V14.01,2013-08-01 03:28:00,
2013-07-31 23:33:00,0.0,0.0,27.49,SW,230,2.7,2.7,0,0.00,,---,0.00,VWS V14.01,2013-08-01 03:33:00,
2013-07-31 23:38:00,0.0,0.0,27.49,SSE,159,0.0,0.0,0,0.00,,---,0.00,VWS V14.01,2013-08-01 03:38:00,
2013-07-31 23:43:00,0.0,0.0,27.49,SSW,199,2.7,2.7,0,0.00,,---,0.00,VWS V14.01,2013-08-01 03:43:00,
2013-07-31 23:48:00,0.0,0.0,27.49,SSW,199,2.7,2.7,0,0.00,,---,0.00,VWS V14.01,2013-08-01 03:48:00,
2013-07-31 23:53:00,0.0,0.0,27.49,SSW,195,0.0,0.0,0,0.00,,---,0.00,VWS V14.01,2013-08-01 03:53:00,
2013-07-31 23:58:00,0.0,0.0,27.49,SSW,195,0.0,0.0,0,0.00,,---,0.00,VWS V14.01,2013-08-01 03:58:00,